Year,Month,Day,Hour,Minute,Value (Times are PST for temperature in C)
2006,11,08,00,00,7.70
2006,11,08,00,01,7.70
2006,11,08,00,02,7.60
2006,11,08,00,03,7.60
2006,11,08,00,04,7.60
2006,11,08,00,05,7.60
2006,11,08,00,06,7.60
2006,11,08,00,07,7.50
2006,11,08,00,08,7.60
2006,11,08,00,09,7.60
2006,11,08,00,10,7.60
2006,11,08,00,11,7.70
2006,11,08,00,12,7.80
2006,11,08,00,13,7.80
2006,11,08,00,14,7.80
2006,11,08,00,15,7.90
2006,11,08,00,16,7.90
2006,11,08,00,17,7.90
2006,11,08,00,18,8.00
2006,11,08,00,19,8.00
2006,11,08,00,20,8.00
2006,11,08,00,21,8.00
2006,11,08,00,22,8.00
2006,11,08,00,23,7.90
2006,11,08,00,24,7.90
2006,11,08,00,25,7.80
2006,11,08,00,26,7.80
2006,11,08,00,27,7.80
2006,11,08,00,28,7.70
2006,11,08,00,29,7.70
2006,11,08,00,30,7.60
2006,11,08,00,31,7.50
2006,11,08,00,32,7.50
2006,11,08,00,33,7.40
2006,11,08,00,34,7.40
2006,11,08,00,35,7.30
2006,11,08,00,36,7.30
2006,11,08,00,37,7.20
2006,11,08,00,38,7.20
2006,11,08,00,39,7.20
2006,11,08,00,40,7.10
2006,11,08,00,41,7.00
2006,11,08,00,42,6.90
2006,11,08,00,43,6.80
2006,11,08,00,44,6.70
2006,11,08,00,45,6.60
2006,11,08,00,46,6.50
2006,11,08,00,47,6.50
2006,11,08,00,48,6.40
2006,11,08,00,49,6.30
2006,11,08,00,50,6.20
2006,11,08,00,51,6.20
2006,11,08,00,52,6.10
2006,11,08,00,53,6.10
2006,11,08,00,54,6.10
2006,11,08,00,55,6.00
2006,11,08,00,56,6.00
2006,11,08,00,57,5.90
2006,11,08,00,58,5.90
2006,11,08,00,59,5.80
2006,11,08,01,00,5.80
2006,11,08,01,01,5.80
2006,11,08,01,02,5.80
2006,11,08,01,03,5.80
2006,11,08,01,04,5.80
2006,11,08,01,05,5.80
2006,11,08,01,06,5.70
2006,11,08,01,07,5.70
2006,11,08,01,08,5.70
2006,11,08,01,09,5.70
2006,11,08,01,10,5.70
2006,11,08,01,11,5.70
2006,11,08,01,12,5.80
2006,11,08,01,13,5.70
2006,11,08,01,14,5.70
2006,11,08,01,15,5.70
2006,11,08,01,16,5.70
2006,11,08,01,17,5.70
2006,11,08,01,18,5.70
2006,11,08,01,19,5.70
2006,11,08,01,20,5.60
2006,11,08,01,21,5.70
2006,11,08,01,22,5.80
2006,11,08,01,23,5.80
2006,11,08,01,24,5.80
2006,11,08,01,25,5.90
2006,11,08,01,26,6.00
2006,11,08,01,27,6.00
2006,11,08,01,28,6.10
2006,11,08,01,29,6.10
2006,11,08,01,30,6.20
2006,11,08,01,31,6.20
2006,11,08,01,32,6.20
2006,11,08,01,33,6.20
2006,11,08,01,34,6.20
2006,11,08,01,35,6.20
2006,11,08,01,36,6.20
2006,11,08,01,37,6.20
2006,11,08,01,38,6.20
2006,11,08,01,39,6.10
2006,11,08,01,40,6.10
2006,11,08,01,41,6.10
2006,11,08,01,42,6.10
2006,11,08,01,43,6.00
2006,11,08,01,44,6.00
2006,11,08,01,45,6.00
2006,11,08,01,46,5.90
2006,11,08,01,47,5.90
2006,11,08,01,48,5.90
2006,11,08,01,49,5.90
2006,11,08,01,50,5.90
2006,11,08,01,51,5.80
2006,11,08,01,52,5.80
2006,11,08,01,53,5.80
2006,11,08,01,54,5.80
2006,11,08,01,55,5.70
2006,11,08,01,56,5.70
2006,11,08,01,57,5.70
2006,11,08,01,58,5.60
2006,11,08,01,59,5.60
2006,11,08,02,00,5.60
2006,11,08,02,01,5.50
2006,11,08,02,02,5.50
2006,11,08,02,03,5.40
2006,11,08,02,04,5.40
2006,11,08,02,05,5.30
2006,11,08,02,06,5.30
2006,11,08,02,07,5.30
2006,11,08,02,08,5.20
2006,11,08,02,09,5.20
2006,11,08,02,10,5.20
2006,11,08,02,11,5.20
2006,11,08,02,12,5.20
2006,11,08,02,13,5.20
2006,11,08,02,14,5.20
2006,11,08,02,15,5.20
2006,11,08,02,16,5.20
2006,11,08,02,17,5.20
2006,11,08,02,18,5.20
2006,11,08,02,19,5.10
2006,11,08,02,20,5.10
2006,11,08,02,21,5.10
2006,11,08,02,22,5.10
2006,11,08,02,23,5.10
2006,11,08,02,24,5.10
2006,11,08,02,25,5.10
2006,11,08,02,26,5.20
2006,11,08,02,27,5.30
2006,11,08,02,28,5.30
2006,11,08,02,29,5.30
2006,11,08,02,30,5.30
2006,11,08,02,31,5.40
2006,11,08,02,32,5.40
2006,11,08,02,33,5.40
2006,11,08,02,34,5.40
2006,11,08,02,35,5.30
2006,11,08,02,36,5.30
2006,11,08,02,37,5.30
2006,11,08,02,38,5.30
2006,11,08,02,39,5.30
2006,11,08,02,40,5.40
2006,11,08,02,41,5.40
2006,11,08,02,42,5.40
2006,11,08,02,43,5.40
2006,11,08,02,44,5.40
2006,11,08,02,45,5.40
2006,11,08,02,46,5.50
2006,11,08,02,47,5.50
2006,11,08,02,48,5.50
2006,11,08,02,49,5.50
2006,11,08,02,50,5.50
2006,11,08,02,51,5.40
2006,11,08,02,52,5.40
2006,11,08,02,53,5.40
2006,11,08,02,54,5.40
2006,11,08,02,55,5.40
2006,11,08,02,56,5.40
2006,11,08,02,57,5.30
2006,11,08,02,58,5.30
2006,11,08,02,59,5.20
2006,11,08,03,00,5.20
2006,11,08,03,01,5.20
2006,11,08,03,02,5.10
2006,11,08,03,03,5.10
2006,11,08,03,04,5.10
2006,11,08,03,05,5.10
2006,11,08,03,06,5.10
2006,11,08,03,07,5.10
2006,11,08,03,08,5.10
2006,11,08,03,09,5.10
2006,11,08,03,10,5.10
2006,11,08,03,11,5.10
2006,11,08,03,12,5.20
2006,11,08,03,13,5.40
2006,11,08,03,14,5.60
2006,11,08,03,15,5.80
2006,11,08,03,16,6.00
2006,11,08,03,17,6.10
2006,11,08,03,18,6.30
2006,11,08,03,19,6.40
2006,11,08,03,20,6.60
2006,11,08,03,21,6.70
2006,11,08,03,22,6.90
2006,11,08,03,23,7.00
2006,11,08,03,24,7.10
2006,11,08,03,25,7.10
2006,11,08,03,26,7.10
2006,11,08,03,27,7.10
2006,11,08,03,28,7.10
2006,11,08,03,29,7.00
2006,11,08,03,30,6.90
2006,11,08,03,31,6.90
2006,11,08,03,32,6.80
2006,11,08,03,33,6.80
2006,11,08,03,34,6.70
2006,11,08,03,35,6.60
2006,11,08,03,36,6.60
2006,11,08,03,37,6.60
2006,11,08,03,38,6.50
2006,11,08,03,39,6.40
2006,11,08,03,40,6.40
2006,11,08,03,41,6.30
2006,11,08,03,42,6.30
2006,11,08,03,43,6.30
2006,11,08,03,44,6.20
2006,11,08,03,45,6.20
2006,11,08,03,46,6.20
2006,11,08,03,47,6.10
2006,11,08,03,48,6.00
2006,11,08,03,49,5.90
2006,11,08,03,50,5.90
2006,11,08,03,51,5.80
2006,11,08,03,52,5.70
2006,11,08,03,53,5.70
2006,11,08,03,54,5.60
2006,11,08,03,55,5.60
2006,11,08,03,56,5.60
2006,11,08,03,57,5.50
2006,11,08,03,58,5.40
2006,11,08,03,59,5.40
2006,11,08,04,00,5.30
2006,11,08,04,01,5.30
2006,11,08,04,02,5.20
2006,11,08,04,03,5.20
2006,11,08,04,04,5.10
2006,11,08,04,05,5.10
2006,11,08,04,06,5.00
2006,11,08,04,07,5.00
2006,11,08,04,08,4.90
2006,11,08,04,09,4.90
2006,11,08,04,10,4.80
2006,11,08,04,11,4.80
2006,11,08,04,12,4.80
2006,11,08,04,13,4.80
2006,11,08,04,14,4.70
2006,11,08,04,15,4.70
2006,11,08,04,16,4.70
2006,11,08,04,17,4.70
2006,11,08,04,18,4.70
2006,11,08,04,19,4.70
2006,11,08,04,20,4.80
2006,11,08,04,21,4.80
2006,11,08,04,22,5.00
2006,11,08,04,23,5.10
2006,11,08,04,24,5.10
2006,11,08,04,25,5.20
2006,11,08,04,26,5.30
2006,11,08,04,27,5.30
2006,11,08,04,28,5.40
2006,11,08,04,29,5.50
2006,11,08,04,30,5.60
2006,11,08,04,31,5.60
2006,11,08,04,32,5.60
2006,11,08,04,33,5.70
2006,11,08,04,34,5.70
2006,11,08,04,35,5.70
2006,11,08,04,36,5.70
2006,11,08,04,37,5.70
2006,11,08,04,38,5.70
2006,11,08,04,39,5.80
2006,11,08,04,40,5.80
2006,11,08,04,41,5.80
2006,11,08,04,42,5.80
2006,11,08,04,43,5.80
2006,11,08,04,44,5.90
2006,11,08,04,45,5.90
2006,11,08,04,46,6.00
2006,11,08,04,47,6.00
2006,11,08,04,48,6.10
2006,11,08,04,49,6.10
2006,11,08,04,50,6.10
2006,11,08,04,51,6.10
2006,11,08,04,52,6.10
2006,11,08,04,53,6.20
2006,11,08,04,54,6.20
2006,11,08,04,55,6.20
2006,11,08,04,56,6.30
2006,11,08,04,57,6.30
2006,11,08,04,58,6.30
2006,11,08,04,59,6.20
2006,11,08,05,00,6.20
2006,11,08,05,01,6.20
2006,11,08,05,02,6.20
2006,11,08,05,03,6.20
2006,11,08,05,04,6.20
2006,11,08,05,05,6.20
2006,11,08,05,06,6.20
2006,11,08,05,07,6.20
2006,11,08,05,08,6.20
2006,11,08,05,09,6.20
2006,11,08,05,10,6.20
2006,11,08,05,11,6.20
2006,11,08,05,12,6.10
2006,11,08,05,13,6.10
2006,11,08,05,14,6.10
2006,11,08,05,15,6.10
2006,11,08,05,16,6.10
2006,11,08,05,17,6.00
2006,11,08,05,18,6.00
2006,11,08,05,19,6.10
2006,11,08,05,20,6.10
2006,11,08,05,21,6.10
2006,11,08,05,22,6.10
2006,11,08,05,23,6.10
2006,11,08,05,24,6.10
2006,11,08,05,25,6.10
2006,11,08,05,26,6.10
2006,11,08,05,27,6.10
2006,11,08,05,28,6.10
2006,11,08,05,29,6.10
2006,11,08,05,30,6.10
2006,11,08,05,31,6.10
2006,11,08,05,32,6.10
2006,11,08,05,33,6.00
2006,11,08,05,34,6.00
2006,11,08,05,35,6.00
2006,11,08,05,36,5.90
2006,11,08,05,37,6.00
2006,11,08,05,38,6.00
2006,11,08,05,39,6.00
2006,11,08,05,40,6.00
2006,11,08,05,41,6.00
2006,11,08,05,42,6.00
2006,11,08,05,43,6.00
2006,11,08,05,44,6.00
2006,11,08,05,45,6.00
2006,11,08,05,46,6.00
2006,11,08,05,47,5.90
2006,11,08,05,48,5.90
2006,11,08,05,49,5.90
2006,11,08,05,50,5.90
2006,11,08,05,51,5.90
2006,11,08,05,52,5.90
2006,11,08,05,53,5.90
2006,11,08,05,54,5.90
2006,11,08,05,55,5.90
2006,11,08,05,56,5.90
2006,11,08,05,57,5.90
2006,11,08,05,58,5.90
2006,11,08,05,59,5.80
2006,11,08,06,00,5.80
2006,11,08,06,01,5.80
2006,11,08,06,02,5.80
2006,11,08,06,03,5.80
2006,11,08,06,04,5.80
2006,11,08,06,05,5.80
2006,11,08,06,06,5.90
2006,11,08,06,07,5.90
2006,11,08,06,08,5.90
2006,11,08,06,09,5.90
2006,11,08,06,10,6.00
2006,11,08,06,11,6.00
2006,11,08,06,12,6.00
2006,11,08,06,13,6.00
2006,11,08,06,14,6.00
2006,11,08,06,15,6.00
2006,11,08,06,16,6.00
2006,11,08,06,17,5.90
2006,11,08,06,18,5.90
2006,11,08,06,19,5.90
2006,11,08,06,20,5.80
2006,11,08,06,21,5.80
2006,11,08,06,22,5.80
2006,11,08,06,23,5.80
2006,11,08,06,24,5.80
2006,11,08,06,25,5.80
2006,11,08,06,26,5.80
2006,11,08,06,27,5.80
2006,11,08,06,28,5.80
2006,11,08,06,29,5.80
2006,11,08,06,30,5.80
2006,11,08,06,31,5.70
2006,11,08,06,32,5.70
2006,11,08,06,33,5.60
2006,11,08,06,34,5.50
2006,11,08,06,35,5.40
2006,11,08,06,36,5.40
2006,11,08,06,37,5.40
2006,11,08,06,38,5.40
2006,11,08,06,39,5.40
2006,11,08,06,40,5.40
2006,11,08,06,41,5.40
2006,11,08,06,42,5.30
2006,11,08,06,43,5.30
2006,11,08,06,44,5.30
2006,11,08,06,45,5.30
2006,11,08,06,46,5.20
2006,11,08,06,47,5.20
2006,11,08,06,48,5.20
2006,11,08,06,49,5.10
2006,11,08,06,50,5.10
2006,11,08,06,51,5.00
2006,11,08,06,52,5.00
2006,11,08,06,53,4.90
2006,11,08,06,54,4.80
2006,11,08,06,55,4.80
2006,11,08,06,56,4.80
2006,11,08,06,57,4.70
2006,11,08,06,58,4.60
2006,11,08,06,59,4.60
2006,11,08,07,00,4.50
2006,11,08,07,01,4.40
2006,11,08,07,02,4.40
2006,11,08,07,03,4.30
2006,11,08,07,04,4.30
2006,11,08,07,05,4.30
2006,11,08,07,06,4.30
2006,11,08,07,07,4.30
2006,11,08,07,08,4.30
2006,11,08,07,09,4.30
2006,11,08,07,10,4.20
2006,11,08,07,11,4.20
2006,11,08,07,12,4.20
2006,11,08,07,13,4.20
2006,11,08,07,14,4.10
2006,11,08,07,15,4.10
2006,11,08,07,16,4.10
2006,11,08,07,17,4.10
2006,11,08,07,18,4.00
2006,11,08,07,19,4.00
2006,11,08,07,20,3.90
2006,11,08,07,21,3.90
2006,11,08,07,22,3.90
2006,11,08,07,23,3.90
2006,11,08,07,24,3.80
2006,11,08,07,25,3.80
2006,11,08,07,26,3.80
2006,11,08,07,27,3.80
2006,11,08,07,28,3.80
2006,11,08,07,29,3.80
2006,11,08,07,30,3.70
2006,11,08,07,31,3.70
2006,11,08,07,32,3.70
2006,11,08,07,33,3.70
2006,11,08,07,34,3.70
2006,11,08,07,35,3.70
2006,11,08,07,36,3.70
2006,11,08,07,37,3.70
2006,11,08,07,38,3.60
2006,11,08,07,39,3.60
2006,11,08,07,40,3.60
2006,11,08,07,41,3.60
2006,11,08,07,42,3.60
2006,11,08,07,43,3.60
2006,11,08,07,44,3.50
2006,11,08,07,45,3.50
2006,11,08,07,46,3.50
2006,11,08,07,47,3.50
2006,11,08,07,48,3.50
2006,11,08,07,49,3.50
2006,11,08,07,50,3.40
2006,11,08,07,51,3.40
2006,11,08,07,52,3.40
2006,11,08,07,53,3.40
2006,11,08,07,54,3.40
2006,11,08,07,55,3.40
2006,11,08,07,56,3.40
2006,11,08,07,57,3.40
2006,11,08,07,58,3.40
2006,11,08,07,59,3.40
2006,11,08,08,00,3.40
2006,11,08,08,01,3.40
2006,11,08,08,02,3.40
2006,11,08,08,03,3.30
2006,11,08,08,04,3.30
2006,11,08,08,05,3.30
2006,11,08,08,06,3.30
2006,11,08,08,07,3.30
2006,11,08,08,08,3.30
2006,11,08,08,09,3.30
2006,11,08,08,10,3.30
2006,11,08,08,11,3.30
2006,11,08,08,12,3.40
2006,11,08,08,13,3.40
2006,11,08,08,14,3.40
2006,11,08,08,15,3.40
2006,11,08,08,16,3.40
2006,11,08,08,17,3.40
2006,11,08,08,18,3.40
2006,11,08,08,19,3.40
2006,11,08,08,20,3.40
2006,11,08,08,21,3.40
2006,11,08,08,22,3.40
2006,11,08,08,23,3.40
2006,11,08,08,24,3.40
2006,11,08,08,25,3.40
2006,11,08,08,26,3.40
2006,11,08,08,27,3.40
2006,11,08,08,28,3.40
2006,11,08,08,29,3.40
2006,11,08,08,30,3.40
2006,11,08,08,31,3.40
2006,11,08,08,32,3.50
2006,11,08,08,33,3.50
2006,11,08,08,34,3.50
2006,11,08,08,35,3.60
2006,11,08,08,36,3.60
2006,11,08,08,37,3.60
2006,11,08,08,38,3.70
2006,11,08,08,39,3.70
2006,11,08,08,40,3.70
2006,11,08,08,41,3.80
2006,11,08,08,42,3.80
2006,11,08,08,43,3.80
2006,11,08,08,44,3.80
2006,11,08,08,45,3.90
2006,11,08,08,46,3.90
2006,11,08,08,47,3.90
2006,11,08,08,48,4.00
2006,11,08,08,49,4.00
2006,11,08,08,50,4.10
2006,11,08,08,51,4.10
2006,11,08,08,52,4.20
2006,11,08,08,53,4.20
2006,11,08,08,54,4.30
2006,11,08,08,55,4.40
2006,11,08,08,56,4.40
2006,11,08,08,57,4.50
2006,11,08,08,58,4.50
2006,11,08,08,59,4.60
2006,11,08,09,00,4.60
2006,11,08,09,01,4.60
2006,11,08,09,02,4.60
2006,11,08,09,03,4.70
2006,11,08,09,04,4.70
2006,11,08,09,05,4.80
2006,11,08,09,06,4.80
2006,11,08,09,07,4.90
2006,11,08,09,08,4.90
2006,11,08,09,09,5.00
2006,11,08,09,10,5.10
2006,11,08,09,11,5.10
2006,11,08,09,12,5.10
2006,11,08,09,13,5.20
2006,11,08,09,14,5.20
2006,11,08,09,15,5.30
2006,11,08,09,16,5.30
2006,11,08,09,17,5.30
2006,11,08,09,18,5.40
2006,11,08,09,19,5.40
2006,11,08,09,20,5.40
2006,11,08,09,21,5.40
2006,11,08,09,22,5.40
2006,11,08,09,23,5.40
2006,11,08,09,24,5.40
2006,11,08,09,25,5.40
2006,11,08,09,26,5.40
2006,11,08,09,27,5.40
2006,11,08,09,28,5.40
2006,11,08,09,29,5.30
2006,11,08,09,30,5.30
2006,11,08,09,31,5.30
2006,11,08,09,32,5.30
2006,11,08,09,33,5.30
2006,11,08,09,34,5.30
2006,11,08,09,35,5.30
2006,11,08,09,36,5.30
2006,11,08,09,37,5.40
2006,11,08,09,38,5.40
2006,11,08,09,39,5.50
2006,11,08,09,40,5.50
2006,11,08,09,41,5.60
2006,11,08,09,42,5.60
2006,11,08,09,43,5.70
2006,11,08,09,44,5.70
2006,11,08,09,45,5.70
2006,11,08,09,46,5.70
2006,11,08,09,47,5.80
2006,11,08,09,48,5.80
2006,11,08,09,49,5.90
2006,11,08,09,50,5.90
2006,11,08,09,51,5.90
2006,11,08,09,52,6.00
2006,11,08,09,53,6.10
2006,11,08,09,54,6.10
2006,11,08,09,55,6.20
2006,11,08,09,56,6.20
2006,11,08,09,57,6.20
2006,11,08,09,58,6.30
2006,11,08,09,59,6.30
2006,11,08,10,00,6.30
2006,11,08,10,01,6.30
2006,11,08,10,02,6.40
2006,11,08,10,03,6.50
2006,11,08,10,04,6.60
2006,11,08,10,05,6.70
2006,11,08,10,06,6.70
2006,11,08,10,07,6.80
2006,11,08,10,08,6.80
2006,11,08,10,09,6.90
2006,11,08,10,10,6.90
2006,11,08,10,11,6.90
2006,11,08,10,12,7.00
2006,11,08,10,13,7.00
2006,11,08,10,14,7.00
2006,11,08,10,15,7.10
2006,11,08,10,16,7.10
2006,11,08,10,17,7.10
2006,11,08,10,18,7.10
2006,11,08,10,19,7.20
2006,11,08,10,20,7.20
2006,11,08,10,21,7.20
2006,11,08,10,22,7.20
2006,11,08,10,23,7.20
2006,11,08,10,24,7.30
2006,11,08,10,25,7.30
2006,11,08,10,26,7.40
2006,11,08,10,27,7.40
2006,11,08,10,28,7.40
2006,11,08,10,29,7.40
2006,11,08,10,30,7.40
2006,11,08,10,31,7.40
2006,11,08,10,32,7.40
2006,11,08,10,33,7.50
2006,11,08,10,34,7.60
2006,11,08,10,35,7.60
2006,11,08,10,36,7.70
2006,11,08,10,37,7.80
2006,11,08,10,38,7.90
2006,11,08,10,39,7.90
2006,11,08,10,40,8.00
2006,11,08,10,41,8.10
2006,11,08,10,42,8.10
2006,11,08,10,43,8.20
2006,11,08,10,44,8.20
2006,11,08,10,45,8.20
2006,11,08,10,46,8.20
2006,11,08,10,47,8.20
2006,11,08,10,48,8.10
2006,11,08,10,49,8.10
2006,11,08,10,50,8.10
2006,11,08,10,51,8.10
2006,11,08,10,52,8.10
2006,11,08,10,53,8.20
2006,11,08,10,54,8.20
2006,11,08,10,55,8.30
2006,11,08,10,56,8.30
2006,11,08,10,57,8.30
2006,11,08,10,58,8.30
2006,11,08,10,59,8.40
2006,11,08,11,00,8.40
2006,11,08,11,01,8.40
2006,11,08,11,02,8.50
2006,11,08,11,03,8.50
2006,11,08,11,04,8.40
2006,11,08,11,05,8.30
2006,11,08,11,06,8.30
2006,11,08,11,07,8.20
2006,11,08,11,08,8.20
2006,11,08,11,09,8.20
2006,11,08,11,10,8.20
2006,11,08,11,11,8.20
2006,11,08,11,12,8.20
2006,11,08,11,13,8.10
2006,11,08,11,14,8.10
2006,11,08,11,15,8.00
2006,11,08,11,16,7.90
2006,11,08,11,17,7.90
2006,11,08,11,18,7.80
2006,11,08,11,19,7.80
2006,11,08,11,20,7.70
2006,11,08,11,21,7.70
2006,11,08,11,22,7.70
2006,11,08,11,23,7.70
2006,11,08,11,24,7.70
2006,11,08,11,25,7.70
2006,11,08,11,26,7.70
2006,11,08,11,27,7.70
2006,11,08,11,28,7.60
2006,11,08,11,29,7.60
2006,11,08,11,30,7.60
2006,11,08,11,31,7.70
2006,11,08,11,32,7.80
2006,11,08,11,33,7.80
2006,11,08,11,34,7.90
2006,11,08,11,35,7.90
2006,11,08,11,36,7.90
2006,11,08,11,37,7.80
2006,11,08,11,38,7.80
2006,11,08,11,39,7.70
2006,11,08,11,40,7.80
2006,11,08,11,41,7.80
2006,11,08,11,42,7.80
2006,11,08,11,43,7.90
2006,11,08,11,44,7.90
2006,11,08,11,45,7.90
2006,11,08,11,46,7.90
2006,11,08,11,47,7.90
2006,11,08,11,48,7.90
2006,11,08,11,49,7.90
2006,11,08,11,50,7.90
2006,11,08,11,51,7.90
2006,11,08,11,52,7.90
2006,11,08,11,53,7.90
2006,11,08,11,54,7.90
2006,11,08,11,55,7.80
2006,11,08,11,56,7.80
2006,11,08,11,57,7.80
2006,11,08,11,58,7.90
2006,11,08,11,59,7.90
2006,11,08,12,00,8.00
2006,11,08,12,01,8.00
2006,11,08,12,02,8.10
2006,11,08,12,03,8.10
2006,11,08,12,04,8.10
2006,11,08,12,05,8.10
2006,11,08,12,06,8.20
2006,11,08,12,07,8.20
2006,11,08,12,08,8.30
2006,11,08,12,09,8.30
2006,11,08,12,10,8.40
2006,11,08,12,11,8.40
2006,11,08,12,12,8.50
2006,11,08,12,13,8.60
2006,11,08,12,14,8.50
2006,11,08,12,15,8.50
2006,11,08,12,16,8.60
2006,11,08,12,17,8.60
2006,11,08,12,18,8.70
2006,11,08,12,19,8.80
2006,11,08,12,20,8.80
2006,11,08,12,21,8.80
2006,11,08,12,22,8.80
2006,11,08,12,23,8.80
2006,11,08,12,24,8.80
2006,11,08,12,25,8.80
2006,11,08,12,26,8.90
2006,11,08,12,27,8.90
2006,11,08,12,28,8.90
2006,11,08,12,29,8.90
2006,11,08,12,30,8.90
2006,11,08,12,31,8.90
2006,11,08,12,32,8.90
2006,11,08,12,33,8.90
2006,11,08,12,34,8.90
2006,11,08,12,35,9.00
2006,11,08,12,36,8.90
2006,11,08,12,37,9.00
2006,11,08,12,38,9.00
2006,11,08,12,39,9.10
2006,11,08,12,40,9.10
2006,11,08,12,41,9.10
2006,11,08,12,42,9.00
2006,11,08,12,43,9.00
2006,11,08,12,44,8.90
2006,11,08,12,45,8.90
2006,11,08,12,46,8.80
2006,11,08,12,47,8.80
2006,11,08,12,48,8.70
2006,11,08,12,49,8.70
2006,11,08,12,50,8.70
2006,11,08,12,51,8.70
2006,11,08,12,52,8.70
2006,11,08,12,53,8.70
2006,11,08,12,54,8.70
2006,11,08,12,55,8.70
2006,11,08,12,56,8.70
2006,11,08,12,57,8.60
2006,11,08,12,58,8.60
2006,11,08,12,59,8.60
2006,11,08,13,00,8.60
2006,11,08,13,01,8.60
2006,11,08,13,02,8.60
2006,11,08,13,03,8.50
2006,11,08,13,04,8.50
2006,11,08,13,05,8.50
2006,11,08,13,06,8.50
2006,11,08,13,07,8.50
2006,11,08,13,08,8.50
2006,11,08,13,09,8.50
2006,11,08,13,10,8.50
2006,11,08,13,11,8.40
2006,11,08,13,12,8.40
2006,11,08,13,13,8.30
2006,11,08,13,14,8.30
2006,11,08,13,15,8.30
2006,11,08,13,16,8.30
2006,11,08,13,17,8.30
2006,11,08,13,18,8.30
2006,11,08,13,19,8.30
2006,11,08,13,20,8.30
2006,11,08,13,21,8.30
2006,11,08,13,22,8.30
2006,11,08,13,23,8.40
2006,11,08,13,24,8.40
2006,11,08,13,25,8.40
2006,11,08,13,26,8.40
2006,11,08,13,27,8.30
2006,11,08,13,28,8.30
2006,11,08,13,29,8.30
2006,11,08,13,30,8.40
2006,11,08,13,31,8.40
2006,11,08,13,32,8.30
2006,11,08,13,33,8.30
2006,11,08,13,34,8.30
2006,11,08,13,35,8.30
2006,11,08,13,36,8.40
2006,11,08,13,37,8.30
2006,11,08,13,38,8.30
2006,11,08,13,39,8.30
2006,11,08,13,40,8.30
2006,11,08,13,41,8.30
2006,11,08,13,42,8.30
2006,11,08,13,43,8.30
2006,11,08,13,44,8.20
2006,11,08,13,45,8.20
2006,11,08,13,46,8.20
2006,11,08,13,47,8.20
2006,11,08,13,48,8.10
2006,11,08,13,49,8.10
2006,11,08,13,50,8.10
2006,11,08,13,51,8.10
2006,11,08,13,52,8.10
2006,11,08,13,53,8.10
2006,11,08,13,54,8.10
2006,11,08,13,55,8.10
2006,11,08,13,56,8.20
2006,11,08,13,57,8.20
2006,11,08,13,58,8.20
2006,11,08,13,59,8.20
2006,11,08,14,00,8.20
2006,11,08,14,01,8.30
2006,11,08,14,02,8.30
2006,11,08,14,03,8.30
2006,11,08,14,04,8.40
2006,11,08,14,05,8.40
2006,11,08,14,06,8.40
2006,11,08,14,07,8.50
2006,11,08,14,08,8.40
2006,11,08,14,09,8.50
2006,11,08,14,10,8.50
2006,11,08,14,11,8.50
2006,11,08,14,12,8.50
2006,11,08,14,13,8.60
2006,11,08,14,14,8.60
2006,11,08,14,15,8.60
2006,11,08,14,16,8.60
2006,11,08,14,17,8.70
2006,11,08,14,18,8.70
2006,11,08,14,19,8.70
2006,11,08,14,20,8.70
2006,11,08,14,21,8.70
2006,11,08,14,22,8.60
2006,11,08,14,23,8.60
2006,11,08,14,24,8.60
2006,11,08,14,25,8.60
2006,11,08,14,26,8.60
2006,11,08,14,27,8.50
2006,11,08,14,28,8.50
2006,11,08,14,29,8.50
2006,11,08,14,30,8.50
2006,11,08,14,31,8.50
2006,11,08,14,32,8.40
2006,11,08,14,33,8.40
2006,11,08,14,34,8.30
2006,11,08,14,35,8.30
2006,11,08,14,36,8.30
2006,11,08,14,37,8.30
2006,11,08,14,38,8.30
2006,11,08,14,39,8.30
2006,11,08,14,40,8.30
2006,11,08,14,41,8.30
2006,11,08,14,42,8.30
2006,11,08,14,43,8.30
2006,11,08,14,44,8.40
2006,11,08,14,45,8.40
2006,11,08,14,46,8.40
2006,11,08,14,47,8.40
2006,11,08,14,48,8.40
2006,11,08,14,49,8.40
2006,11,08,14,50,8.40
2006,11,08,14,51,8.40
2006,11,08,14,52,8.40
2006,11,08,14,53,8.40
2006,11,08,14,54,8.40
2006,11,08,14,55,8.30
2006,11,08,14,56,8.30
2006,11,08,14,57,8.30
2006,11,08,14,58,8.30
2006,11,08,14,59,8.30
2006,11,08,15,00,8.20
2006,11,08,15,01,8.20
2006,11,08,15,02,8.10
2006,11,08,15,03,8.10
2006,11,08,15,04,8.10
2006,11,08,15,05,8.00
2006,11,08,15,06,7.90
2006,11,08,15,07,7.90
2006,11,08,15,08,7.80
2006,11,08,15,09,7.80
2006,11,08,15,10,7.80
2006,11,08,15,11,7.80
2006,11,08,15,12,7.80
2006,11,08,15,13,7.80
2006,11,08,15,14,7.80
2006,11,08,15,15,7.80
2006,11,08,15,16,7.80
2006,11,08,15,17,7.70
2006,11,08,15,18,7.70
2006,11,08,15,19,7.70
2006,11,08,15,20,7.70
2006,11,08,15,21,7.70
2006,11,08,15,22,7.70
2006,11,08,15,23,7.70
2006,11,08,15,24,7.60
2006,11,08,15,25,7.60
2006,11,08,15,26,7.60
2006,11,08,15,27,7.60
2006,11,08,15,28,7.60
2006,11,08,15,29,7.50
2006,11,08,15,30,7.50
2006,11,08,15,31,7.40
2006,11,08,15,32,7.40
2006,11,08,15,33,7.40
2006,11,08,15,34,7.40
2006,11,08,15,35,7.40
2006,11,08,15,36,7.40
2006,11,08,15,37,7.30
2006,11,08,15,38,7.30
2006,11,08,15,39,7.30
2006,11,08,15,40,7.20
2006,11,08,15,41,7.20
2006,11,08,15,42,7.20
2006,11,08,15,43,7.10
2006,11,08,15,44,7.00
2006,11,08,15,45,7.00
2006,11,08,15,46,6.90
2006,11,08,15,47,6.80
2006,11,08,15,48,6.80
2006,11,08,15,49,6.70
2006,11,08,15,50,6.60
2006,11,08,15,51,6.50
2006,11,08,15,52,6.50
2006,11,08,15,53,6.40
2006,11,08,15,54,6.30
2006,11,08,15,55,6.30
2006,11,08,15,56,6.30
2006,11,08,15,57,6.20
2006,11,08,15,58,6.20
2006,11,08,15,59,6.20
2006,11,08,16,00,6.20
2006,11,08,16,01,6.10
2006,11,08,16,02,6.10
2006,11,08,16,03,6.10
2006,11,08,16,04,6.00
2006,11,08,16,05,6.00
2006,11,08,16,06,6.00
2006,11,08,16,07,5.90
2006,11,08,16,08,5.90
2006,11,08,16,09,5.90
2006,11,08,16,10,5.80
2006,11,08,16,11,5.80
2006,11,08,16,12,5.80
2006,11,08,16,13,5.70
2006,11,08,16,14,5.70
2006,11,08,16,15,5.70
2006,11,08,16,16,5.70
2006,11,08,16,17,5.70
2006,11,08,16,18,5.60
2006,11,08,16,19,5.60
2006,11,08,16,20,5.60
2006,11,08,16,21,5.50
2006,11,08,16,22,5.50
2006,11,08,16,23,5.40
2006,11,08,16,24,5.40
2006,11,08,16,25,5.30
2006,11,08,16,26,5.30
2006,11,08,16,27,5.30
2006,11,08,16,28,5.30
2006,11,08,16,29,5.20
2006,11,08,16,30,5.20
2006,11,08,16,31,5.20
2006,11,08,16,32,5.20
2006,11,08,16,33,5.20
2006,11,08,16,34,5.10
2006,11,08,16,35,5.10
2006,11,08,16,36,5.10
2006,11,08,16,37,5.10
2006,11,08,16,38,5.10
2006,11,08,16,39,5.10
2006,11,08,16,40,5.00
2006,11,08,16,41,5.00
2006,11,08,16,42,5.00
2006,11,08,16,43,4.90
2006,11,08,16,44,4.90
2006,11,08,16,45,4.90
2006,11,08,16,46,4.90
2006,11,08,16,47,4.90
2006,11,08,16,48,4.90
2006,11,08,16,49,4.80
2006,11,08,16,50,4.80
2006,11,08,16,51,4.80
2006,11,08,16,52,4.80
2006,11,08,16,53,4.80
2006,11,08,16,54,4.70
2006,11,08,16,55,4.70
2006,11,08,16,56,4.70
2006,11,08,16,57,4.70
2006,11,08,16,58,4.70
2006,11,08,16,59,4.70
2006,11,08,17,00,4.60
2006,11,08,17,01,4.60
2006,11,08,17,02,4.60
2006,11,08,17,03,4.60
2006,11,08,17,04,4.60
2006,11,08,17,05,4.50
2006,11,08,17,06,4.50
2006,11,08,17,07,4.50
2006,11,08,17,08,4.50
2006,11,08,17,09,4.40
2006,11,08,17,10,4.40
2006,11,08,17,11,4.40
2006,11,08,17,12,4.40
2006,11,08,17,13,4.40
2006,11,08,17,14,4.40
2006,11,08,17,15,4.40
2006,11,08,17,16,4.30
2006,11,08,17,17,4.30
2006,11,08,17,18,4.30
2006,11,08,17,19,4.30
2006,11,08,17,20,4.30
2006,11,08,17,21,4.30
2006,11,08,17,22,4.30
2006,11,08,17,23,4.20
2006,11,08,17,24,4.20
2006,11,08,17,25,4.20
2006,11,08,17,26,4.20
2006,11,08,17,27,4.20
2006,11,08,17,28,4.20
2006,11,08,17,29,4.20
2006,11,08,17,30,4.20
2006,11,08,17,31,4.20
2006,11,08,17,32,4.10
2006,11,08,17,33,4.10
2006,11,08,17,34,4.10
2006,11,08,17,35,4.10
2006,11,08,17,36,4.10
2006,11,08,17,37,4.10
2006,11,08,17,38,4.10
2006,11,08,17,39,4.10
2006,11,08,17,40,4.10
2006,11,08,17,41,4.10
2006,11,08,17,42,4.00
2006,11,08,17,43,4.00
2006,11,08,17,44,4.00
2006,11,08,17,45,4.00
2006,11,08,17,46,4.00
2006,11,08,17,47,4.00
2006,11,08,17,48,4.00
2006,11,08,17,49,4.00
2006,11,08,17,50,3.90
2006,11,08,17,51,3.90
2006,11,08,17,52,3.90
2006,11,08,17,53,3.90
2006,11,08,17,54,3.90
2006,11,08,17,55,3.90
2006,11,08,17,56,3.90
2006,11,08,17,57,3.90
2006,11,08,17,58,3.90
2006,11,08,17,59,3.90
2006,11,08,18,00,3.80
2006,11,08,18,01,3.80
2006,11,08,18,02,3.80
2006,11,08,18,03,3.80
2006,11,08,18,04,3.80
2006,11,08,18,05,3.80
2006,11,08,18,06,3.80